CGPYL CYUL-CYQB

Flight info

Callsign CGPYL
Flight time 0h 35m
Altitude 19000
Route SINRO PESAC4
Aircraft TBM9/L-SDFGRWY/S

Departure

Time 2026-05-06 22:55
Airport Montreal / Pierre Elliott Trudeau International Airport (CYUL)

Arrival

Time 2026-05-06 23:30
Airport Quebec Jean Lesage International Airport (CYQB)
Time Latitude Longitude Altitude Speed Heading
2026-05-06 22:36 45.47157 -73.71840 120 ft 0 kts 196°
2026-05-06 22:50 45.47150 -73.71816 118 ft 8 kts 55°
2026-05-06 22:50 45.47205 -73.71847 120 ft 10 kts 316°
2026-05-06 22:51 45.47255 -73.71815 121 ft 10 kts 42°
2026-05-06 22:51 45.47336 -73.71710 122 ft 21 kts 42°
2026-05-06 22:51 45.47440 -73.71571 123 ft 19 kts 43°
2026-05-06 22:51 45.47521 -73.71463 122 ft 9 kts 43°
2026-05-06 22:52 45.47567 -73.71419 122 ft 9 kts 359°
2026-05-06 22:52 45.47584 -73.71430 124 ft 0 kts 316°
2026-05-06 22:53 45.47646 -73.71537 118 ft 20 kts 314°
2026-05-06 22:53 45.47678 -73.71623 120 ft 8 kts 259°
2026-05-06 22:53 45.47660 -73.71657 120 ft 0 kts 225°
2026-05-06 22:54 45.47530 -73.71827 118 ft 56 kts 222°
2026-05-06 22:54 45.47097 -73.72388 159 ft 106 kts 222°
2026-05-06 22:54 45.46540 -73.73120 571 ft 114 kts 231°
2026-05-06 22:55 45.46402 -73.74238 935 ft 131 kts 287°
2026-05-06 22:55 45.46975 -73.75441 1132 ft 161 kts 307°
2026-05-06 22:55 45.47679 -73.76724 1636 ft 164 kts 306°
2026-05-06 22:55 45.48383 -73.78008 2228 ft 165 kts 307°
2026-05-06 22:56 45.49094 -73.79314 2820 ft 167 kts 306°
2026-05-06 22:56 45.49936 -73.80451 3393 ft 170 kts 336°
2026-05-06 22:56 45.51108 -73.80703 3958 ft 172 kts 357°
2026-05-06 22:56 45.52223 -73.80778 4812 ft 154 kts 355°
2026-05-06 22:57 45.53337 -73.80827 4990 ft 162 kts 356°
2026-05-06 22:57 45.54478 -73.80851 5148 ft 165 kts 356°
2026-05-06 22:57 45.55600 -73.80883 5725 ft 160 kts 356°
2026-05-06 22:57 45.56705 -73.80694 6242 ft 166 kts 21°
2026-05-06 22:58 45.57634 -73.79680 6761 ft 171 kts 37°
2026-05-06 22:58 45.58558 -73.78591 7262 ft 172 kts 33°
2026-05-06 22:58 45.59512 -73.77576 7752 ft 176 kts 32°
2026-05-06 22:58 45.60518 -73.76535 8316 ft 179 kts 32°
2026-05-06 22:59 45.61532 -73.75490 8871 ft 180 kts 32°
2026-05-06 22:59 45.62568 -73.74419 9378 ft 186 kts 32°
2026-05-06 22:59 45.63625 -73.73319 9896 ft 190 kts 32°
2026-05-06 22:59 45.64713 -73.72199 10350 ft 197 kts 31°
2026-05-06 23:00 45.65821 -73.71051 10932 ft 195 kts 31°
2026-05-06 23:00 45.66937 -73.69898 11394 ft 202 kts 31°
2026-05-06 23:00 45.68093 -73.68699 11874 ft 208 kts 31°
2026-05-06 23:00 45.69279 -73.67467 12366 ft 213 kts 31°
2026-05-06 23:01 45.70491 -73.66208 12871 ft 217 kts 31°
2026-05-06 23:01 45.71718 -73.64936 13368 ft 221 kts 31°
2026-05-06 23:01 45.72973 -73.63628 13919 ft 222 kts 31°
2026-05-06 23:01 45.74221 -73.62344 14363 ft 226 kts 31°
2026-05-06 23:02 45.75517 -73.61007 14868 ft 231 kts 31°
2026-05-06 23:02 45.76813 -73.59635 15375 ft 232 kts 32°
2026-05-06 23:02 45.78129 -73.58256 15848 ft 235 kts 31°
2026-05-06 23:02 45.79508 -73.56838 15991 ft 256 kts 31°
2026-05-06 23:03 45.80948 -73.55308 16500 ft 252 kts 33°
2026-05-06 23:03 45.82364 -73.53786 16818 ft 261 kts 31°
2026-05-06 23:03 45.83856 -73.52284 17257 ft 262 kts 31°
2026-05-06 23:03 45.85345 -73.50746 17681 ft 265 kts 32°
2026-05-06 23:04 45.86844 -73.49169 18082 ft 268 kts 32°
2026-05-06 23:04 45.88339 -73.47600 18472 ft 271 kts 32°
2026-05-06 23:04 45.89868 -73.46003 18844 ft 276 kts 32°
2026-05-06 23:04 45.91483 -73.44314 18855 ft 297 kts 32°
2026-05-06 23:05 45.93195 -73.42511 18863 ft 313 kts 33°
2026-05-06 23:05 45.94986 -73.40624 18861 ft 325 kts 33°
2026-05-06 23:05 45.96841 -73.38678 18863 ft 335 kts 33°
2026-05-06 23:05 45.98740 -73.36677 18862 ft 341 kts 33°
2026-05-06 23:06 46.00664 -73.34646 18860 ft 345 kts 33°
2026-05-06 23:06 46.01961 -73.33284 18862 ft 348 kts 33°
2026-05-06 23:06 46.03928 -73.31217 18861 ft 352 kts 33°
2026-05-06 23:06 46.05913 -73.29126 18861 ft 354 kts 33°
2026-05-06 23:07 46.07905 -73.27023 18862 ft 356 kts 33°
2026-05-06 23:07 46.09897 -73.24897 18851 ft 358 kts 36°
2026-05-06 23:07 46.11686 -73.22380 18850 ft 361 kts 47°
2026-05-06 23:07 46.13398 -73.19719 18848 ft 361 kts 46°
2026-05-06 23:08 46.15131 -73.17106 18847 ft 361 kts 45°
2026-05-06 23:08 46.16845 -73.14501 18847 ft 361 kts 46°
2026-05-06 23:08 46.18562 -73.11842 18847 ft 362 kts 46°
2026-05-06 23:08 46.20281 -73.09181 18845 ft 362 kts 46°
2026-05-06 23:09 46.22011 -73.06537 18844 ft 361 kts 46°
2026-05-06 23:09 46.23429 -73.03567 18854 ft 360 kts 68°
2026-05-06 23:09 46.24239 -73.00170 18853 ft 357 kts 79°
2026-05-06 23:09 46.24869 -72.96704 18849 ft 357 kts 79°
2026-05-06 23:10 46.25650 -72.93287 18838 ft 359 kts 72°
2026-05-06 23:10 46.26576 -72.89931 18837 ft 360 kts 71°
2026-05-06 23:10 46.27458 -72.86547 18841 ft 359 kts 74°
2026-05-06 23:10 46.28260 -72.83137 18840 ft 358 kts 75°
2026-05-06 23:11 46.29068 -72.79779 18837 ft 358 kts 74°
2026-05-06 23:11 46.29924 -72.76392 18837 ft 359 kts 73°
2026-05-06 23:11 46.30770 -72.72994 18840 ft 358 kts 74°
2026-05-06 23:11 46.31600 -72.69592 18833 ft 358 kts 74°
2026-05-06 23:12 46.32432 -72.66199 18834 ft 358 kts 74°
2026-05-06 23:12 46.33268 -72.62793 18833 ft 359 kts 74°
2026-05-06 23:12 46.34103 -72.59391 18832 ft 358 kts 74°
2026-05-06 23:12 46.34934 -72.55996 18833 ft 358 kts 74°
2026-05-06 23:13 46.35760 -72.52604 18833 ft 358 kts 74°
2026-05-06 23:13 46.36589 -72.49210 18833 ft 357 kts 74°
2026-05-06 23:13 46.37417 -72.45817 18834 ft 357 kts 74°
2026-05-06 23:13 46.38230 -72.42471 18832 ft 357 kts 74°
2026-05-06 23:14 46.39054 -72.39068 18715 ft 361 kts 74°
2026-05-06 23:14 46.39888 -72.35607 18466 ft 363 kts 74°
2026-05-06 23:14 46.40723 -72.32164 18213 ft 361 kts 74°
2026-05-06 23:14 46.41557 -72.28740 17959 ft 360 kts 74°
2026-05-06 23:15 46.42382 -72.25323 17709 ft 358 kts 74°
2026-05-06 23:15 46.43197 -72.21922 17457 ft 356 kts 74°
2026-05-06 23:15 46.44008 -72.18542 17205 ft 355 kts 74°
2026-05-06 23:15 46.44818 -72.15177 16954 ft 353 kts 74°
2026-05-06 23:16 46.45625 -72.11818 16701 ft 351 kts 74°
2026-05-06 23:16 46.46426 -72.08480 16449 ft 349 kts 73°
2026-05-06 23:16 46.47220 -72.05169 16254 ft 346 kts 74°
2026-05-06 23:16 46.48005 -72.01859 15904 ft 348 kts 74°
2026-05-06 23:17 46.48788 -71.98544 15454 ft 345 kts 74°
2026-05-06 23:17 46.49570 -71.95263 14998 ft 342 kts 73°
2026-05-06 23:17 46.50340 -71.92067 14553 ft 338 kts 73°
2026-05-06 23:17 46.51104 -71.88846 14102 ft 335 kts 74°
2026-05-06 23:18 46.51856 -71.85649 13652 ft 334 kts 73°
2026-05-06 23:18 46.52609 -71.82469 13207 ft 331 kts 73°
2026-05-06 23:18 46.53356 -71.79313 12766 ft 329 kts 73°
2026-05-06 23:18 46.54095 -71.76178 12331 ft 326 kts 73°
2026-05-06 23:19 46.54822 -71.73084 11899 ft 321 kts 73°
2026-05-06 23:19 46.55545 -71.70023 11473 ft 319 kts 73°
2026-05-06 23:19 46.56251 -71.67017 11053 ft 315 kts 73°
2026-05-06 23:19 46.56956 -71.64012 10634 ft 312 kts 73°
2026-05-06 23:20 46.57650 -71.61044 10218 ft 307 kts 73°
2026-05-06 23:20 46.58333 -71.58119 9817 ft 303 kts 73°
2026-05-06 23:20 46.59008 -71.55242 9418 ft 298 kts 73°
2026-05-06 23:20 46.59674 -71.52399 9020 ft 295 kts 73°
2026-05-06 23:21 46.60326 -71.49597 8629 ft 290 kts 73°
2026-05-06 23:21 46.60968 -71.46825 8243 ft 287 kts 73°
2026-05-06 23:21 46.61604 -71.44095 7863 ft 283 kts 73°
2026-05-06 23:21 46.62236 -71.41395 7489 ft 281 kts 73°
2026-05-06 23:22 46.62847 -71.38756 7123 ft 277 kts 73°
2026-05-06 23:22 46.63455 -71.36111 6756 ft 274 kts 73°
2026-05-06 23:22 46.64060 -71.33484 6392 ft 273 kts 73°
2026-05-06 23:22 46.64666 -71.30882 6029 ft 270 kts 73°
2026-05-06 23:23 46.65263 -71.28298 5671 ft 268 kts 73°
2026-05-06 23:23 46.65850 -71.25739 5314 ft 265 kts 73°
2026-05-06 23:23 46.66420 -71.23282 4970 ft 240 kts 72°
2026-05-06 23:23 46.66935 -71.21093 4666 ft 219 kts 72°
2026-05-06 23:24 46.67431 -71.18986 4371 ft 220 kts 70°
2026-05-06 23:24 46.68251 -71.17108 4070 ft 222 kts 47°
2026-05-06 23:24 46.69461 -71.15766 3991 ft 216 kts 28°
2026-05-06 23:24 46.70876 -71.15100 3988 ft 213 kts
2026-05-06 23:25 46.72353 -71.14818 3983 ft 215 kts
2026-05-06 23:25 46.73822 -71.14905 3792 ft 214 kts 346°
2026-05-06 23:25 46.75162 -71.15744 3519 ft 206 kts 326°
2026-05-06 23:25 46.76179 -71.17110 3345 ft 198 kts 309°
2026-05-06 23:26 46.76875 -71.18824 3055 ft 195 kts 292°
2026-05-06 23:26 46.77154 -71.20736 2795 ft 192 kts 276°
2026-05-06 23:26 46.77303 -71.22669 2466 ft 191 kts 276°
2026-05-06 23:26 46.77421 -71.24513 2209 ft 172 kts 276°
2026-05-06 23:27 46.77566 -71.26126 2020 ft 151 kts 278°
2026-05-06 23:27 46.77727 -71.27596 1747 ft 146 kts 279°
2026-05-06 23:27 46.77880 -71.28983 1628 ft 129 kts 277°
2026-05-06 23:27 46.77987 -71.30194 1539 ft 108 kts 275°
2026-05-06 23:28 46.78067 -71.31260 1339 ft 99 kts 274°
2026-05-06 23:28 46.78148 -71.32254 1104 ft 95 kts 277°
2026-05-06 23:28 46.78245 -71.33120 895 ft 84 kts 277°
2026-05-06 23:28 46.78329 -71.34023 794 ft 92 kts 275°
2026-05-06 23:29 46.78410 -71.34962 672 ft 93 kts 275°
2026-05-06 23:29 46.78482 -71.35911 561 ft 96 kts 277°
2026-05-06 23:29 46.78583 -71.36876 436 ft 97 kts 278°
2026-05-06 23:29 46.78683 -71.37853 302 ft 97 kts 277°
2026-05-06 23:30 46.78765 -71.38756 248 ft 76 kts 279°
2026-05-06 23:30 46.78812 -71.39234 248 ft 28 kts 278°
2026-05-06 23:30 46.78855 -71.39352 248 ft 14 kts 354°
2026-05-06 23:30 46.78942 -71.39272 248 ft 16 kts 44°
2026-05-06 23:31 46.79047 -71.39128 248 ft 25 kts 46°
2026-05-06 23:31 46.79173 -71.38944 248 ft 22 kts 45°
2026-05-06 23:31 46.79194 -71.38833 248 ft 11 kts 135°
2026-05-06 23:31 46.79124 -71.38772 248 ft 13 kts 151°
2026-05-06 23:32 46.79034 -71.38701 248 ft 18 kts 152°
2026-05-06 23:32 46.78928 -71.38613 248 ft 5 kts 148°